sat.trackr.live / text

‹ back to catalog

ALSAT-2B

NORAD 41786 · 2016-059D

PAYLOAD ACTIVE UNKNOWN

§ Identity

Operator
Country
ALG
Launch date
2016-09-26
Launch site
SRILR
Launch vehicle
Mass (kg)
RCS (m²)
0.78

External: N2YO · Heavens-Above · Gunter

§ Orbital elements

Epoch: 2026-09-13T04:01:48.169632Z

Period
97.90 min
Inclination
97.9818°
Eccentricity
0.0000863
Mean motion
14.70963390 rev/d
Perigee alt
657.4 km
Apogee alt
658.6 km
Semi-major
7,036.1 km
B*
8.8711e-5
RAAN
316.7139°
Arg perigee
61.7382°
Mean anomaly
298.3911°
Rev number
53,370

§ Raw data

ALSAT-2B1 41786U 16059D   26256.16791863  .00000495  00000+0  88711-4 0  99952 41786  97.9818 316.7139 0000863  61.7382 298.3911 14.70963390533707

JSON: /api/v1/satellites/41786 · /tle

For live sub-satellite position, see the globe view (requires WebGL).

§ Visibility from observer

Set your observer location to see the next 7 days of passes ≥ 10°. The values pass through the URL so the page stays shareable.

No JS? Fill the form by hand. The geolocation button needs JavaScript.

§ Radio — SatNOGS DB

ModeDescriptionDownlinkUplink
FM S-band telemetry 2.267 GHz

1 transmitter · refreshed weekly from db.satnogs.org